Regional Weather Roundup
Issued by NWS Sioux Falls, SD

Home | Current Version | Previous Version | Text Only | Print | Product List | Glossary Off
Versions: 1 2 3 4 5 6 7 8 9 10 11 12 13 14 15 16 17 18 19 20 21 22 23 24 25 26 27 28 29 30 31 32 33 34 35 36 37 38 39 40 41 42 43 44 45 46 47 48 49 50

000
ASUS43 KFSD 230510
RWRFSD

WEATHER ROUNDUP FOR SE SOUTH DAKOTA/SW MINNESOTA/NW IOWA
NATIONAL WEATHER SERVICE SIOUX FALLS SD
1200 AM CDT TUE AUG 23 2016

NOTE: "FAIR" INDICATES FEW OR NO CLOUDS BELOW 12,000 FEET WITH NO
SIGNIFICANT WEATHER AND OR OBSTRUCTIONS TO VISIBILITY.


SDZ038>040-050-052>070-230600-
SOUTHEAST SOUTH DAKOTA

CITY           SKY/WX    TMP DP  RH WIND       PRES   REMARKS
BROOKINGS      CLOUDY    71  61  70 S15         N/A
CHAMBERLAIN    MOCLDY    82  63  52 S20G30    29.73S
HURON          PTCLDY    75  63  66 S18G28    29.74S
MADISON        FAIR      70  63  78 S17G24    29.86S
MITCHELL       PTCLDY    75  62  64 S15G25    29.79S
SIOUX FALLS    MOCLDY    74  61  63 S21G31    29.88S
WINNER         FAIR      81  61  50 S26G38    29.73S
YANKTON        CLOUDY    73  57  56 S16G24    29.85S
$$

MNZ071-072-080-081-089-090-097-098-230600-
SOUTHWEST MINNESOTA

CITY           SKY/WX    TMP DP  RH WIND       PRES   REMARKS
JACKSON        CLEAR     70  55  60 S13G20    29.97S
LUVERNE        CLOUDY    68  59  73 S12G20    29.92S
MARSHALL       CLOUDY    72  61  68 S28G36    29.83F
MONTEVIDEO     CLOUDY    72  63  73 S13       29.85S
REDWOOD FALLS  PTCLDY    72  59  63 S20G26    29.88S
TRACY          PTCLDY    71  62  72 S17G28    29.88S
WINDOM         CLOUDY    72  57  60 S18G28    29.94S
WORTHINGTON    CLEAR     69  60  73 S17G23    29.94S
$$

IAZ001>003-012>014-020>022-031-032-NEZ013-014-SDZ071-230600-
NORTHWEST IOWA

CITY           SKY/WX    TMP DP  RH WIND       PRES   REMARKS
CHEROKEE       MOCLDY    66  62  85 S10       29.97S
DENISON        CLOUDY    68  61  77 S10G16    29.98S
ESTHERVILLE    CLEAR     64  61  90 S12G21    29.98R
LE MARS        PTCLDY    72  61  68 S13G21    29.94S
ORANGE CITY    PTCLDY    66  61  82 S8        29.95R
SHELDON        CLEAR     66  61  82 S16       29.93S
SIOUX CITY     MOCLDY    71  60  68 S14       29.94R
SPENCER        CLEAR     67  59  75 S13       29.97S
STORM LAKE     CLOUDY    64  61  88 S12       30.00S
$$

ABBREVIATIONS USED IN REMARKS
   TC - TEMPERATURE IN CELSIUS
  WCI - WIND CHILL INDEX
   HX - HEAT INDEX
  VSB - VISIBILITY





USA.gov is the U.S. government's official web portal to all federal, state and local government web resources and services.